Regional Weather Roundup
Issued by NWS

Home | Current Version | Previous Version | Graphics & Text | Print | Product List | Glossary On
Versions: 1 2 3 4 5 6 7 8 9 10 11 12 13 14 15 16 17 18 19 20 21 22 23 24 25 26 27 28 29 30 31 32 33 34 35 36 37 38 39 40 41 42 43 44 45 46 47 48 49 50
576
ASUS44 KLIX 200601
RWRLA
LOUISIANA WEATHER ROUNDUP
NATIONAL WEATHER SERVICE NEW ORLEANS LA
100 AM CDT SUN APR 20 2014

NOTE: "FAIR" INDICATES FEW OR NO CLOUDS BELOW 12,000 FEET WITH NO
      SIGNIFICANT WEATHER AND/OR OBSTRUCTIONS TO VISIBILITY.
      SKY/WX - SKY CONDITION AND SIGNIFICANT WEATHER.
      TMP - AIR TEMPERATURE.    DP   - DEWPOINT TEMPERATURE.
      RH  - RELATIVE HUMIDITY.  PRES - PRESSURE.
      HX  - HEAT INDEX.         WCI  - WIND CHILL INDEX.

*  THESE STATIONS ARE NOT NWS OR FAA STATIONS AND ARE NOT UNDER
   NWS QUALITY CONTROL.

LAZ040-048-061>063-065-066-069-200700-
SOUTHEAST LOUISIANA

CITY           SKY/WX    TMP DP  RH WIND       PRES   REMARKS
N.O. AUDUBON     N/A     64  58  81 MISG        N/A
6HR MIN TEMP:  63; 6HR MAX TEMP:  76;

N.O. INTL ARPT FAIR      64  57  78 NE3       30.11S
6HR MIN TEMP:  64; 6HR MAX TEMP:  74;

N.O. LAKEFRONT FAIR      68  59  73 N9        30.11S
6HR MIN TEMP:  67; 6HR MAX TEMP:  71;

N.O. DOWNTOWN* FAIR      70  52  52 CALM      30.11F
6HR MIN TEMP:  70; 6HR MAX TEMP:  77;

SLIDELL        FAIR      57  53  86 CALM      30.10F
6HR MIN TEMP:  57; 6HR MAX TEMP:  76;

BATON ROUGE    FAIR      59  52  77 CALM      30.12S
6HR MIN TEMP:  59; 6HR MAX TEMP:  76;

BOOTHVILLE     FAIR      63  61  93 NW6       30.10F
6HR MIN TEMP:  63; 6HR MAX TEMP:  70;

BELLE CHASSE   FAIR      58  54  86 CALM      30.10F
6HR MIN TEMP:  57; 6HR MAX TEMP:  76;

BOGALUSA*        N/A     56  52  86 CALM      30.13F
6HR MIN TEMP:  56; 6HR MAX TEMP:  75;

GALLIANO*      NOT AVBL
NEW ROADS*     NOT AVBL
GONZALES*      FAIR      58  57  97 CALM      30.11S
6HR MIN TEMP:  58; 6HR MAX TEMP:  75;

HAMMOND*       NOT AVBL
HOUMA*         NOT AVBL
PORT FOURCHON* CLEAR     66  63  88 W5        30.13S

$$

LAZ041-044-053-054-200700-
SOUTHWEST LOUISIANA

CITY           SKY/WX    TMP DP  RH WIND       PRES   REMARKS
LAKE CHARLES   FAIR      58  56  93 CALM      30.13R
6HR MIN TEMP:  57; 6HR MAX TEMP:  76;

LAFAYETTE      FAIR      61  55  81 CALM      30.12F
6HR MIN TEMP:  59; 6HR MAX TEMP:  76;

PATTERSON      FAIR      59  57  94 CALM      30.15S
6HR MIN TEMP:  59; 6HR MAX TEMP:  73;

SALT POINT       N/A     66  62  87 CALM      30.12S
6HR MIN TEMP:  66; 6HR MAX TEMP:  72;

NEW IBERIA     FAIR      59  56  89 CALM      30.13S
6HR MIN TEMP:  59; 6HR MAX TEMP:  77;

CHENAULT AIRPK NOT AVBL

$$

LAZ027-028-200700-
CENTRAL LOUISIANA

CITY           SKY/WX    TMP DP  RH WIND       PRES   REMARKS
FORT POLK      FAIR      58  54  86 CALM      30.14R
6HR MIN TEMP:  57; 6HR MAX TEMP:  75;

ALEXANDRIA INT FAIR      57  55  93 CALM      30.12S
6HR MIN TEMP:  57; 6HR MAX TEMP:  76;

ALEXANDRIA     FAIR      55  53  93 CALM      30.13F
6HR MIN TEMP:  55; 6HR MAX TEMP:  79;


$$

LAZ001-002-200700-
NORTHWEST LOUISIANA

CITY           SKY/WX    TMP DP  RH WIND       PRES   REMARKS
SHREVEPORT     MOCLDY    60  54  80 CALM      30.15R
6HR MIN TEMP:  59; 6HR MAX TEMP:  74;

BARKSDALE AFB  NOT AVBL
DTN SHREVEPORT FAIR      57  53  86 CALM      30.16R
6HR MIN TEMP:  56; 6HR MAX TEMP:  74;


$$

LAZ014-016-200700-
NORTHEAST LOUISIANA

CITY           SKY/WX    TMP DP  RH WIND       PRES   REMARKS
MONROE         FAIR      57  54  89 CALM      30.15S
6HR MIN TEMP:  56; 6HR MAX TEMP:  74;

TALLULAH       FAIR      61  58  90 CALM      30.13F
6HR MIN TEMP:  60; 6HR MAX TEMP:  74;


$$




USA.gov is the U.S. government's official web portal to all federal, state and local government web resources and services.